GW4318 Weather Reports


Display with metric or nautical units.
time (UTC)temp
F
wind
direction
speed
MPH
gust
MPH
rain 1hr
in
rain 24hr
in
rain mn
in
humidity
%
barometer
mb
20260906172018 61 28 0.0 1.0 0.05 0.48 0.47 90 1015.5
20260906171019 62 101 1.0 3.0 0.05 0.48 0.47 87 1015.6
20260906170022 64 274 1.0 3.0 0.03 0.46 0.45 82 1015.6
20260906165019 67 327 1.0 5.0 0.00 0.43 0.42 74 1015.4
20260906164019 67 97 1.0 3.0 0.00 0.43 0.42 73 1015.4
20260906163019 68 340 1.0 3.0 0.00 0.43 0.42 72 1015.4
20260906162019 68 55 1.0 4.0 0.00 0.43 0.42 72 1015.3
20260906161019 66 53 1.0 3.0 0.00 0.43 0.42 78 1015.5
20260906160019 66 100 1.0 3.0 0.00 0.43 0.42 77 1015.5
20260906155016 66 348 1.0 2.0 0.00 0.43 0.42 76 1015.5
20260906154020 66 356 1.0 3.0 0.00 0.43 0.42 74 1015.6
20260906153020 65 333 1.0 5.0 0.00 0.43 0.42 78 1015.7
20260906152020 65 299 1.0 4.0 0.00 0.43 0.42 78 1015.7
20260906151017 64 283 2.0 4.0 0.00 0.43 0.42 81 1015.8
20260906150017 63 298 1.0 3.0 0.00 0.43 0.42 84 1016.0
20260906145020 63 16 1.0 2.0 0.00 0.43 0.42 85 1016.1
20260906144101 62 64 0.0 1.0 0.00 0.43 0.42 85 1016.1
20260906143018 62 334 1.0 2.0 0.00 0.43 0.42 83 1016.0
20260906142018 62 8 1.0 2.0 0.00 0.43 0.42 84 1015.9
20260906141017 63 313 2.0 3.0 0.00 0.43 0.42 83 1015.8
20260906140016 63 311 2.0 3.0 0.00 0.43 0.42 83 1015.7
20260906135021 62 99 1.0 4.0 0.00 0.43 0.42 83 1015.8
20260906134018 62 7 0.0 2.0 0.00 0.43 0.42 83 1015.7
20260906133018 62 353 0.0 2.0 0.00 0.43 0.42 86 1015.7
20260906132019 61 16 0.0 2.0 0.00 0.43 0.42 88 1015.7
20260906131017 61 289 1.0 3.0 0.00 0.43 0.42 89 1015.7
20260906130017 61 347 1.0 3.0 0.00 0.43 0.42 92 1015.6
20260906125017 60 322 1.0 2.0 0.00 0.43 0.42 94 1015.8
20260906124017 60 321 1.0 2.0 0.00 0.43 0.42 95 1015.7
20260906123017 60 272 1.0 2.0 0.00 0.43 0.42 96 1015.8
20260906122017 60 90 0.0 1.0 0.00 0.43 0.42 97 1015.6
20260906121018 59 317 0.0 1.0 0.00 0.43 0.42 97 1015.5
20260906120020 59 290 0.0 2.0 0.00 0.43 0.42 97 1015.5
20260906115018 59 0.0 0.0 0.00 0.43 0.42 97 1015.5
20260906114018 59 88 0.0 2.0 0.00 0.43 0.42 97 1015.3
20260906113018 58 127 0.0 1.0 0.00 0.43 0.42 97 1015.2
20260906112118 58 125 0.0 1.0 0.00 0.43 0.42 97 1015.1
20260906111038 58 259 0.0 1.0 0.00 0.43 0.42 97 1014.9
20260906110019 58 291 1.0 1.0 0.00 0.42 0.42 97 1014.8
20260906105020 58 98 0.0 1.0 0.00 0.42 0.42 97 1014.7
20260906104019 58 133 0.0 1.0 0.02 0.42 0.42 97 1014.6
20260906103019 58 299 0.0 1.0 0.03 0.42 0.42 97 1014.5
20260906102019 58 119 0.0 1.0 0.03 0.42 0.42 97 1014.4
20260906101020 58 78 0.0 0.0 0.07 0.42 0.42 97 1014.4
20260906100019 58 124 0.0 1.0 0.10 0.42 0.42 97 1014.2
20260906095040 58 63 0.0 1.0 0.10 0.42 0.41 97 1014.1
20260906094020 58 292 0.0 1.0 0.09 0.40 0.40 97 1014.2
20260906093020 59 0.0 0.0 0.08 0.40 0.39 97 1014.3
20260906092020 59 321 0.0 1.0 0.12 0.39 0.38 97 1014.1
20260906091020 59 31 0.0 1.0 0.09 0.35 0.35 97 1013.8
20260906090020 59 137 1.0 2.0 0.07 0.32 0.32 97 1014.0
20260906085040 59 163 0.0 1.0 0.08 0.32 0.31 96 1013.9
20260906084021 59 218 0.0 2.0 0.12 0.32 0.31 96 1013.9
20260906083020 59 119 0.0 1.0 0.14 0.31 0.31 96 1013.9
20260906082041 60 307 1.0 1.0 0.12 0.26 0.26 96 1013.8
20260906081021 60 311 0.0 1.0 0.14 0.26 0.25 97 1013.6
20260906080041 60 109 0.0 1.0 0.14 0.26 0.25 97 1013.4
20260906075041 60 311 1.0 1.0 0.13 0.24 0.23 97 1013.3
20260906074021 60 128 0.0 1.0 0.10 0.20 0.19 96 1013.3
20260906073041 60 111 0.0 1.0 0.09 0.17 0.17 96 1013.4
20260906072021 60 164 0.0 1.0 0.06 0.14 0.14 96 1013.3
20260906071042 61 109 0.0 1.0 0.04 0.13 0.12 96 1013.2
20260906070022 60 102 0.0 1.0 0.03 0.12 0.11 96 1013.2
20260906065022 61 20 0.0 1.0 0.02 0.11 0.10 96 1013.2
20260906064022 61 156 0.0 1.0 0.01 0.09 0.09 96 1013.3
20260906063022 61 134 0.0 1.0 0.01 0.09 0.08 96 1013.2
20260906062022 61 193 0.0 2.0 0.01 0.09 0.08 96 1013.2
20260906061042 61 117 0.0 1.0 0.03 0.09 0.08 96 1013.2
20260906060023 61 252 0.0 1.0 0.04 0.09 0.08 96 1013.3
20260906055023 61 234 0.0 1.0 0.06 0.09 0.08 95 1013.3
20260906054023 61 170 0.0 1.0 0.06 0.09 0.08 95 1013.2
20260906053023 61 54 0.0 0.0 0.05 0.08 0.07 95 1013.2
20260906052023 61 99 0.0 1.0 0.07 0.08 0.07 95 1013.2
20260906051023 61 138 0.0 1.0 0.05 0.05 0.05 95 1013.3
20260906050023 61 124 0.0 1.0 0.04 0.04 0.04 95 1013.5
20260906045023 62 175 0.0 1.0 0.02 0.03 0.02 95 1013.4
20260906044043 62 301 0.0 1.0 0.02 0.03 0.02 95 1013.4
20260906043024 62 45 0.0 1.0 0.02 0.03 0.02 95 1013.3
20260906042024 62 289 0.0 1.0 0.00 0.01 0.00 95 1013.3
20260906041024 62 273 0.0 1.0 0.00 0.01 0.00 95 1013.3
20260906040024 62 205 0.0 1.0 0.00 0.01 0.00 94 1013.3
20260906035024 62 195 0.0 1.0 0.00 0.01 0.01 94 1013.3
20260906034024 62 188 0.0 1.0 0.00 0.01 0.01 94 1013.2
20260906033045 62 285 0.0 1.0 0.00 0.01 0.01 94 1013.2
20260906032025 62 12 0.0 1.0 0.00 0.01 0.01 93 1013.1
20260906031025 62 23 0.0 1.0 0.00 0.01 0.01 93 1013.1
20260906030025 62 165 0.0 1.0 0.00 0.01 0.01 92 1013.0
20260906025018 62 108 0.0 2.0 0.00 0.01 0.01 92 1013.0
20260906024018 62 314 1.0 2.0 0.01 0.01 0.01 91 1013.1
20260906023038 63 91 0.0 2.0 0.01 0.01 0.01 90 1013.0
20260906022019 63 208 0.0 1.0 0.00 0.01 0.01 89 1013.1
20260906021018 63 75 0.0 1.0 0.00 0.01 0.01 89 1013.1
20260906020018 63 57 0.0 1.0 0.00 0.01 0.01 88 1013.1
20260906015018 63 216 0.0 2.0 0.00 0.01 0.01 87 1013.1
20260906014059 63 103 0.0 1.0 0.00 0.00 0.00 87 1013.2
20260906013018 63 89 0.0 1.0 0.00 0.00 0.00 87 1013.1
20260906012019 63 97 0.0 1.0 0.00 0.00 0.00 87 1013.1
20260906011016 64 176 0.0 1.0 0.00 0.00 0.00 86 1013.0
20260906010016 64 110 0.0 1.0 0.00 0.00 0.00 85 1012.9
20260906005019 64 71 0.0 1.0 0.00 0.00 0.00 84 1012.9
20260906004020 64 183 0.0 1.0 0.00 0.00 0.00 84 1012.9
20260906003020 64 162 0.0 2.0 0.00 0.00 0.00 83 1012.7
20260906002017 64 217 0.0 1.0 0.00 0.00 0.00 82 1012.7
20260906001017 64 96 0.0 1.0 0.00 0.00 0.00 81 1012.7
20260906000040 64 94 0.0 1.0 0.00 0.00 0.00 81 1012.6
20260905235020 65 356 0.0 1.0 0.00 0.00 0.00 81 1012.6
20260905234017 65 10 0.0 1.0 0.00 0.00 0.00 80 1012.5
20260905233017 65 50 0.0 1.0 0.00 0.00 0.00 80 1012.4
20260905232018 65 51 0.0 1.0 0.00 0.00 0.00 79 1012.3
20260905231018 65 66 0.0 1.0 0.00 0.00 0.00 78 1012.1
20260905230038 66 78 0.0 1.0 0.00 0.00 0.00 77 1012.1
20260905225038 66 89 0.0 0.0 0.00 0.00 0.00 77 1012.0
20260905224018 66 118 0.0 2.0 0.00 0.00 0.00 76 1011.9
20260905223018 66 109 0.0 1.0 0.00 0.00 0.00 77 1011.9
20260905222018 66 111 0.0 1.0 0.00 0.00 0.00 76 1011.8
20260905221019 66 202 0.0 2.0 0.00 0.00 0.00 77 1011.9
20260905220018 67 167 0.0 1.0 0.00 0.00 0.00 77 1011.8
20260905215019 67 113 1.0 4.0 0.00 0.00 0.00 77 1011.6
20260905214019 67 233 1.0 3.0 0.00 0.00 0.00 77 1011.5
20260905213039 68 208 0.0 2.0 0.00 0.00 0.00 77 1011.5
20260905212037 68 69 1.0 4.0 0.00 0.00 0.00 75 1011.4
20260905211016 69 357 0.0 2.0 0.00 0.00 0.00 75 1011.3
20260905210019 70 81 0.0 2.0 0.00 0.00 0.00 73 1011.1
20260905205020 71 112 2.0 5.0 0.00 0.00 0.00 71 1011.1
20260905204020 71 143 1.0 2.0 0.00 0.00 0.00 71 1011.0
20260905203017 73 88 1.0 5.0 0.00 0.00 0.00 67 1010.7
20260905202017 71 135 1.0 4.0 0.00 0.00 0.00 70 1010.8
20260905201017 71 103 1.0 2.0 0.00 0.00 0.00 70 1010.7
20260905200021 72 89 1.0 2.0 0.00 0.00 0.00 69 1010.6
20260905195018 73 184 1.0 5.0 0.00 0.00 0.00 68 1010.5
20260905194018 73 127 1.0 4.0 0.00 0.00 0.00 69 1010.4
20260905193018 74 267 2.0 5.0 0.00 0.00 0.00 66 1010.5
20260905192018 73 300 1.0 5.0 0.00 0.00 0.00 68 1010.6
20260905191018 73 142 2.0 8.0 0.00 0.00 0.00 69 1010.6
20260905190018 73 145 2.0 5.0 0.00 0.00 0.00 70 1010.6
20260905185018 72 164 1.0 5.0 0.00 0.00 0.00 71 1010.7
20260905184018 72 158 2.0 4.0 0.00 0.00 0.00 70 1010.6
20260905183018 73 310 1.0 3.0 0.00 0.00 0.00 70 1010.6
20260905182018 72 129 2.0 5.0 0.00 0.00 0.00 71 1010.7
20260905181019 70 225 1.0 4.0 0.00 0.00 0.00 76 1010.7
20260905180019 71 81 1.0 2.0 0.00 0.00 0.00 73 1010.7
20260905175039 72 138 1.0 3.0 0.00 0.00 0.00 70 1010.5
20260905174019 72 139 3.0 7.0 0.00 0.00 0.00 70 1010.4
20260905173020 71 83 0.0 2.0 0.00 0.00 0.00 74 1010.4